Regional Weather Roundup
Issued by NWS

Home | Current Version | Previous Version | Text Only | Print | Product List | Glossary Off
Versions: 1 2 3 4 5 6 7 8 9 10 11 12 13 14 15 16 17 18 19 20 21 22 23 24 25 26 27 28 29 30 31 32 33 34 35 36 37 38 39 40 41 42 43 44 45 46 47 48 49 50

000
ASUS45 KBOU 290207
RWRCO

WEATHER ROUNDUP FOR COLORADO
NATIONAL WEATHER SERVICE DENVER/BOULDER CO
800 PM MDT FRI AUG 28 2015

NOTE: "FAIR" INDICATES FEW OR NO CLOUDS BELOW 12000 FEET WITH NO
SIGNIFICANT WEATHER AND/OR OBSTRUCTIONS TO VISIBILITY.

COZ001>005-013-030-031-290300-
...NORTHWEST COLORADO...

CITY           SKY/WX    TMP DP  RH WIND       PRES   REMARKS
CRAIG          CLEAR     67  45  45 CALM      30.26R
HAYDEN         NOT AVBL
MEEKER         CLEAR     70  45  40 CALM      30.27R
MOUNT WERNER   NOT AVBL
STEAMBOAT SPGS CLEAR     66  47  50 E5        30.32S
WALDEN         CLEAR     59  37  44 N5        30.42R
$$

COZ006>008-011-290300-
...WEST CENTRAL VALLEYS...

CITY           SKY/WX    TMP DP  RH WIND       PRES   REMARKS
GRAND JUNCTION CLEAR     81  43  26 CALM      30.13R
MONTROSE       CLEAR     74  48  39 CALM      30.22S
EAGLE          CLEAR     72  39  30 E8        30.31R
RIFLE          CLEAR     77  43  29 CALM      30.20R
DELTA          CLEAR     80  50  35 CALM      30.17R
NUCLA          CLEAR     77  36  22 NE6       30.25S
$$

COZ017>023-064>068-290300-
...SOUTHWEST COLORADO...

CITY           SKY/WX    TMP DP  RH WIND       PRES   REMARKS
DURANGO        PTCLDY    75  40  28 S3        30.22R
CORTEZ         CLEAR     77  35  21 N7        30.17R
PAGOSA SPRINGS PTCLDY    70  42  36 CALM      30.31R
TELLURIDE      PTCLDY    64  37  36 CALM      30.47R
WOLF CREEK PAS PTCLDY    52  28  40 NE9       30.69R
$$

COZ009-010-012-014-032>034-037-058>063-290300-
...CENTRAL COLORADO...

CITY           SKY/WX    TMP DP  RH WIND       PRES   REMARKS
ASPEN          CLEAR     63  47  55 S10       30.38R
BUENA VISTA    CLOUDY    69  39  34 E12       30.38R
COPPER MTN     CLEAR     54  36  50 W12       30.72R
BERTHOUD PASS  FAIR      41  30  65 SE8       30.76S
COTTONWOOD PAS MOCLDY    64  27  24 E7        30.53R
GUNNISON       PTCLDY    66  39  37 N7        30.37R
KREMMLING      CLEAR     64  36  34 CALM      30.39R
LEADVILLE      CLEAR     56  33  42 N6        30.53R
MONARCH PASS   CLOUDY    52  34  50 W10       30.78S
SALIDA         PTCLDY    71  41  34 SE17G24   30.42R
SUNLIGHT       CLEAR     57  39  51 CALM      30.64S
WILKERSON PASS MOCLDY    48  36  61 E7        30.68R
$$

COZ069>075-290300-
...SAN LUIS VALLEY/SANGRE DE CRISTO MOUNTAINS...

CITY           SKY/WX    TMP DP  RH WIND       PRES   REMARKS
ALAMOSA        CLEAR     68  41  37 E14       30.31R
LA VETA PASS   PTCLDY    54  39  58 MISG      30.56R
SAGUACHE       PTCLDY    66  37  34 NE7       30.36R
$$

COZ035-036-038>040-290300-
...NORTHERN COLORADO FRONT RANGE...

CITY           SKY/WX    TMP DP  RH WIND       PRES   REMARKS
DENVER INTL AP PTCLDY    76  33  21 E5        30.23R
DMNS CITY PARK   N/A     75  40  28 E2G9      30.23R
AURORA         PTCLDY    71  38  30 E5        30.25R
FRONT RANGE AP PTCLDY    73  34  23 CALM      30.24R
ERIE MUNI ARPT MOCLDY    74  44  34 CALM      30.21R
BOULDER MUN AP CLOUDY    77  45  31 W9        30.22R
CENTENNIAL     PTCLDY    75  41  29 NE3       30.26R
BROOMFIELD     MOCLDY    77  41  27 N5        30.26
FORT COLLINS   PTCLDY    73  43  33 S5        30.20R
LONGMONT       PTCLDY    71  51  47 W3        30.22R
$$

COZ041-046-047-076>085-087-088-290300-
...PIKES PEAK/PALMER DIVIDE AND SOUTHERN FOOTHILLS...

CITY           SKY/WX    TMP DP  RH WIND       PRES   REMARKS
COLO. SPRINGS  PTCLDY    67  44  43 NE12      30.29R
A. F. ACADEMY  MOCLDY    67  47  48 N6        30.31R
ELLICOTT       PTCLDY   N/A N/A N/A NE8       30.27R
FALCON         PTCLDY    66  44  45 MISG      30.35R
FORT CARSON    MOCLDY    70  50  48 N3        30.25R
LIMON          CLEAR     63  47  55 N6        30.23R
MONUMENT HILL  CLEAR     63  41  45 NE6       30.36R
TRINIDAD       PTCLDY    72  45  37 NE7       30.24R
$$

COZ042>045-048>051-090-091-290300-
...NORTHEAST COLORADO...

CITY           SKY/WX    TMP DP  RH WIND       PRES   REMARKS
GREELEY ARPT   CLEAR     73  46  38 CALM      30.19R
AKRON          CLEAR     70  39  32 NE8       30.18R
BURLINGTON     CLEAR     71  45  39 NE8       30.13R
WRAY           CLEAR     74  50  42 NE7       30.10R
STERLING       CLEAR     73  50  43 NE5       30.13R
HOLYOKE        CLEAR     73  55  53 E5        30.12R
FORT MORGAN    NOT AVBL
$$

COZ086-089-092>099-290300-
...SOUTHEAST COLORADO...

CITY           SKY/WX    TMP DP  RH WIND       PRES   REMARKS
PUEBLO         PTCLDY    78  47  33 NE9       30.16R
LA JUNTA       CLEAR     76  48  37 N6        30.13R
LAMAR          PTCLDY    76  53  44 NE5       30.06R
SPRINGFIELD      N/A     76  49  38 NE3       30.13R
$$



USA.gov is the U.S. government's official web portal to all federal, state and local government web resources and services.